This is the latest recevied weather packets stored in our database for station/object KM4RT-13. If no packets are shown the sender has not sent any weather packets the latest 10 day(s).
| Time | Temp. | Humidity | Pressure | Rain* | Wind** | Luminosity | Snow |
|---|---|---|---|---|---|---|---|
| 1777639009 | 12.78° C | 82% | 1014.3 hPa | 0 mm | - | 134 W/m² | - |
| 1777638706 | 12.78° C | 82% | 1014.4 hPa | 0 mm | - | 89 W/m² | - |
| 1777638402 | 12.78° C | 82% | 1014.6 hPa | 0 mm | - | 111 W/m² | - |
| 1777638099 | 12.22° C | 83% | 1014.4 hPa | 0 mm | - | 113 W/m² | - |
| 1777637795 | 12.22° C | 84% | 1014.1 hPa | 0 mm | - | 66 W/m² | - |
| 1777637492 | 11.67° C | 85% | 1014.3 hPa | 0 mm | - | 42 W/m² | - |
| 1777637189 | 11.67° C | 86% | 1014.3 hPa | 0 mm | - | 44 W/m² | - |
| 1777636886 | 11.67° C | 87% | 1014.2 hPa | 0 mm | - | 38 W/m² | - |
| 1777636582 | 11.11° C | 89% | 1013.9 hPa | 0 mm | - | 43 W/m² | - |
| 1777636277 | 10.56° C | 93% | 1013.7 hPa | 0 mm | - | 38 W/m² | - |
| 1777635972 | 10.56° C | 96% | 1013.8 hPa | 0 mm | - | 32 W/m² | - |
| 1777635668 | 10° C | 98% | 1013.8 hPa | 0 mm | - | 27 W/m² | - |
| 1777635365 | 10° C | 98% | 1013.8 hPa | 0 mm | - | 24 W/m² | - |
| 1777635062 | 9.44° C | 99% | 1013.8 hPa | 0 mm | - | 16 W/m² | - |
| 1777634758 | 9.44° C | 99% | 1013.6 hPa | 0 mm | - | 12 W/m² | - |
| 1777634455 | 8.89° C | 99% | 1014 hPa | 0 mm | - | 9 W/m² | - |
| 1777634152 | 8.89° C | 99% | 1014 hPa | 0 mm | - | 6 W/m² | - |
| 1777633849 | 8.89° C | 99% | 1013.8 hPa | 0 mm | - | 4 W/m² | - |
| 1777633546 | 8.89° C | 99% | 1013.8 hPa | 0 mm | - | 2 W/m² | - |
| 1777633244 | 8.89° C | 99% | 1013.5 hPa | 0 mm | - | 1 W/m² | - |
| 1777632941 | 8.89° C | 99% | 1013.6 hPa | 0 mm | - | 0 W/m² | - |
| 1777632637 | 8.89° C | 98% | 1013.5 hPa | 0 mm | - | 0 W/m² | - |
| 1777632334 | 8.89° C | 98% | 1013.3 hPa | 0 mm | - | 0 W/m² | - |
| 1777632031 | 8.89° C | 99% | 1013.4 hPa | 0 mm | - | 0 W/m² | - |
| 1777631729 | 8.89° C | 98% | 1013.3 hPa | 0 mm | - | 0 W/m² | - |
* Rain latest hour (hover to see other rain measurements)
** Current wind speed in m/s (hover to see current wind gust speed)